Location: ?astrovice
(49.6513°N, 14.9287°E)
Time: 02:28:19
(UTC+00:00)

X-37B - Pass Details

Date: 07 August 2021
Orbit: 381 x 393 km, 45.0° (Epoch: 29 August)

Event Time Altitude Azimuth Distance (km) Brightness Sun altitude
Exits shadow 01:00:59 14° 120° (ESE) 1,192 3.0 -19.2°
Drops below altitude 10° 01:01:42 10° 110° (ESE) 1,397 3.5 -19.2°
Sets 01:04:05 0° 92° (E) 2,252 4.8 -19.0°
